EFW657G EGKK-LIPX

Flight info

Callsign EFW657G
Flight time 1h 34m
Altitude 35000
Route ODVIK Y311 DVR UL9 KONAN DCT KOK DCT CIV DCT SUTAL DCT GTQ DCT DEVDI DCT ODINA DCT LEGLO DCT OSKOR L615 NEVNI
Aircraft A321/M-SDE3FGHIRWY/LB1

Departure

Time 2026-05-06 14:32
Airport London Gatwick Airport (EGKK)

Arrival

Time 2026-05-06 16:06
Airport Verona Villafranca Valerio Catullo Airport (LIPX)
Time Latitude Longitude Altitude Speed Heading
2026-05-06 14:05 51.15823 -0.16953 200 ft 0 kts 88°
2026-05-06 14:13 51.15823 -0.16958 200 ft 2 kts 88°
2026-05-06 14:14 51.15822 -0.16974 200 ft 1 kts 88°
2026-05-06 14:14 51.15820 -0.16997 200 ft 2 kts 73°
2026-05-06 14:14 51.15815 -0.17018 200 ft 2 kts 59°
2026-05-06 14:14 51.15806 -0.17037 199 ft 2 kts 45°
2026-05-06 14:15 51.15794 -0.17052 200 ft 2 kts 31°
2026-05-06 14:15 51.15781 -0.17062 199 ft 2 kts 17°
2026-05-06 14:15 51.15766 -0.17067 199 ft 2 kts
2026-05-06 14:15 51.15751 -0.17066 199 ft 1 kts 348°
2026-05-06 14:16 51.15746 -0.17064 200 ft 0 kts 345°
2026-05-06 14:22 51.15747 -0.17064 199 ft 0 kts 345°
2026-05-06 14:22 51.15770 -0.17074 199 ft 6 kts 345°
2026-05-06 14:22 51.15808 -0.17107 199 ft 6 kts 298°
2026-05-06 14:22 51.15806 -0.17191 199 ft 10 kts 259°
2026-05-06 14:23 51.15789 -0.17325 199 ft 14 kts 258°
2026-05-06 14:23 51.15767 -0.17484 199 ft 15 kts 257°
2026-05-06 14:23 51.15744 -0.17650 199 ft 15 kts 258°
2026-05-06 14:23 51.15720 -0.17818 199 ft 15 kts 257°
2026-05-06 14:24 51.15696 -0.17990 200 ft 16 kts 258°
2026-05-06 14:24 51.15673 -0.18165 199 ft 16 kts 257°
2026-05-06 14:24 51.15648 -0.18344 199 ft 15 kts 257°
2026-05-06 14:24 51.15627 -0.18494 199 ft 14 kts 257°
2026-05-06 14:25 51.15604 -0.18652 199 ft 14 kts 257°
2026-05-06 14:25 51.15582 -0.18791 199 ft 11 kts 240°
2026-05-06 14:25 51.15507 -0.18811 199 ft 12 kts 167°
2026-05-06 14:25 51.15420 -0.18781 199 ft 13 kts 168°
2026-05-06 14:26 51.15328 -0.18749 199 ft 13 kts 168°
2026-05-06 14:26 51.15231 -0.18715 199 ft 12 kts 168°
2026-05-06 14:26 51.15148 -0.18712 199 ft 12 kts 216°
2026-05-06 14:26 51.15116 -0.18843 199 ft 13 kts 258°
2026-05-06 14:27 51.15095 -0.19004 199 ft 16 kts 258°
2026-05-06 14:27 51.15068 -0.19199 199 ft 19 kts 257°
2026-05-06 14:27 51.15038 -0.19414 200 ft 19 kts 258°
2026-05-06 14:27 51.15008 -0.19627 199 ft 19 kts 257°
2026-05-06 14:28 51.14980 -0.19834 200 ft 19 kts 257°
2026-05-06 14:28 51.14951 -0.20045 199 ft 19 kts 258°
2026-05-06 14:28 51.14922 -0.20251 199 ft 19 kts 257°
2026-05-06 14:28 51.14893 -0.20458 199 ft 19 kts 257°
2026-05-06 14:29 51.14865 -0.20660 199 ft 18 kts 258°
2026-05-06 14:29 51.14836 -0.20866 199 ft 18 kts 258°
2026-05-06 14:29 51.14811 -0.21062 199 ft 16 kts 258°
2026-05-06 14:29 51.14781 -0.21213 199 ft 14 kts 253°
2026-05-06 14:30 51.14760 -0.21354 199 ft 11 kts 256°
2026-05-06 14:30 51.14702 -0.21401 199 ft 10 kts 164°
2026-05-06 14:30 51.14637 -0.21337 199 ft 11 kts 157°
2026-05-06 14:30 51.14557 -0.21297 199 ft 12 kts 148°
2026-05-06 14:31 51.14520 -0.21183 199 ft 12 kts 89°
2026-05-06 14:31 51.14561 -0.20871 200 ft 59 kts 77°
2026-05-06 14:31 51.14699 -0.19867 200 ft 124 kts 78°
2026-05-06 14:31 51.14921 -0.18242 252 ft 170 kts 75°
2026-05-06 14:32 51.15163 -0.16430 896 ft 168 kts 76°
2026-05-06 14:32 51.15414 -0.14615 1540 ft 170 kts 73°
2026-05-06 14:32 51.15671 -0.12784 2086 ft 170 kts 73°
2026-05-06 14:32 51.15940 -0.10904 2332 ft 182 kts 73°
2026-05-06 14:33 51.16230 -0.08863 2587 ft 194 kts 74°
2026-05-06 14:33 51.16529 -0.06720 2850 ft 208 kts 74°
2026-05-06 14:33 51.16803 -0.04362 3122 ft 224 kts 80°
2026-05-06 14:33 51.16891 -0.01798 3387 ft 243 kts 88°
2026-05-06 14:34 51.16853 0.00976 3730 ft 259 kts 89°
2026-05-06 14:34 51.16790 0.03899 4327 ft 266 kts 90°
2026-05-06 14:34 51.16727 0.06819 5035 ft 268 kts 90°
2026-05-06 14:34 51.16666 0.09774 5735 ft 271 kts 90°
2026-05-06 14:35 51.16608 0.12767 6460 ft 273 kts 90°
2026-05-06 14:35 51.16552 0.15769 7177 ft 276 kts 90°
2026-05-06 14:35 51.16543 0.18830 7886 ft 280 kts 88°
2026-05-06 14:35 51.16557 0.21949 8555 ft 283 kts 88°
2026-05-06 14:36 51.16570 0.25061 9205 ft 287 kts 88°
2026-05-06 14:36 51.16579 0.28262 9892 ft 290 kts 88°
2026-05-06 14:36 51.16586 0.31444 10543 ft 293 kts 88°
2026-05-06 14:36 51.16591 0.34708 11178 ft 296 kts 88°
2026-05-06 14:37 51.16595 0.38003 11812 ft 299 kts 88°
2026-05-06 14:37 51.16597 0.41330 12432 ft 303 kts 88°
2026-05-06 14:37 51.16598 0.44644 13003 ft 306 kts 88°
2026-05-06 14:37 51.16599 0.48069 13581 ft 310 kts 88°
2026-05-06 14:38 51.16599 0.51519 14036 ft 318 kts 88°
2026-05-06 14:38 51.16598 0.55083 14304 ft 332 kts 89°
2026-05-06 14:38 51.16595 0.58841 14550 ft 346 kts 89°
2026-05-06 14:38 51.16590 0.62729 14808 ft 360 kts 89°
2026-05-06 14:39 51.16584 0.66770 15105 ft 371 kts 90°
2026-05-06 14:39 51.16576 0.70918 15597 ft 375 kts 90°
2026-05-06 14:39 51.16566 0.75073 16173 ft 378 kts 90°
2026-05-06 14:39 51.16555 0.79247 16745 ft 380 kts 90°
2026-05-06 14:40 51.16543 0.83428 17241 ft 383 kts 90°
2026-05-06 14:40 51.16529 0.87704 17786 ft 386 kts 90°
2026-05-06 14:40 51.16513 0.91953 18276 ft 390 kts 90°
2026-05-06 14:40 51.16496 0.96302 18773 ft 393 kts 90°
2026-05-06 14:41 51.16478 1.00657 19277 ft 395 kts 90°
2026-05-06 14:41 51.16457 1.04990 19731 ft 399 kts 90°
2026-05-06 14:41 51.16435 1.09409 20175 ft 402 kts 90°
2026-05-06 14:41 51.16410 1.13871 20638 ft 405 kts 90°
2026-05-06 14:42 51.16384 1.18355 21070 ft 408 kts 90°
2026-05-06 14:42 51.16356 1.22844 21513 ft 410 kts 91°
2026-05-06 14:42 51.16325 1.27385 21943 ft 413 kts 91°
2026-05-06 14:42 51.16292 1.31957 22364 ft 415 kts 91°
2026-05-06 14:43 51.16219 1.36591 22778 ft 418 kts 93°
2026-05-06 14:43 51.16025 1.41172 23185 ft 420 kts 94°
2026-05-06 14:43 51.15805 1.45779 23570 ft 422 kts 95°
2026-05-06 14:43 51.15578 1.50426 23965 ft 424 kts 95°
2026-05-06 14:44 51.15348 1.55094 24354 ft 426 kts 95°
2026-05-06 14:44 51.15116 1.59779 24725 ft 428 kts 95°
2026-05-06 14:44 51.14881 1.64528 25087 ft 430 kts 94°
2026-05-06 14:45 51.14405 1.74080 25805 ft 434 kts 95°
2026-05-06 14:45 51.14166 1.78827 26149 ft 436 kts 95°
2026-05-06 14:45 51.13923 1.83634 26477 ft 438 kts 95°
2026-05-06 14:45 51.13674 1.88487 26794 ft 440 kts 95°
2026-05-06 14:46 51.13425 1.93300 27108 ft 442 kts 95°
2026-05-06 14:46 51.13171 1.98175 27430 ft 444 kts 95°
2026-05-06 14:46 51.12913 2.03079 27746 ft 446 kts 95°
2026-05-06 14:46 51.12652 2.08006 28039 ft 448 kts 95°
2026-05-06 14:47 51.12389 2.12931 28322 ft 449 kts 95°
2026-05-06 14:47 51.12123 2.17855 28602 ft 451 kts 95°
2026-05-06 14:47 51.11853 2.22856 28867 ft 453 kts 95°
2026-05-06 14:47 51.11582 2.27812 29171 ft 454 kts 95°
2026-05-06 14:48 51.11308 2.32796 29556 ft 453 kts 95°
2026-05-06 14:48 51.11033 2.37760 29955 ft 451 kts 95°
2026-05-06 14:48 51.10754 2.42734 30331 ft 450 kts 95°
2026-05-06 14:48 51.10478 2.47628 30677 ft 449 kts 95°
2026-05-06 14:49 51.10164 2.52546 31024 ft 448 kts 98°
2026-05-06 14:49 51.09626 2.57369 31338 ft 446 kts 102°
2026-05-06 14:49 51.08828 2.62120 31637 ft 445 kts 107°
2026-05-06 14:49 51.07778 2.66744 31915 ft 444 kts 113°
2026-05-06 14:50 51.06495 2.71178 32183 ft 444 kts 118°
2026-05-06 14:50 51.04966 2.75453 32466 ft 442 kts 123°
2026-05-06 14:50 51.03260 2.79506 32754 ft 441 kts 125°
2026-05-06 14:50 51.01531 2.83477 33024 ft 441 kts 125°
2026-05-06 14:51 50.99785 2.87466 33260 ft 441 kts 125°
2026-05-06 14:51 50.98022 2.91494 33459 ft 442 kts 125°
2026-05-06 14:51 50.96283 2.95473 33655 ft 443 kts 125°
2026-05-06 14:51 50.94543 2.99456 33827 ft 443 kts 125°
2026-05-06 14:52 50.92772 3.03506 33995 ft 444 kts 125°
2026-05-06 14:52 50.91015 3.07523 34168 ft 445 kts 125°
2026-05-06 14:52 50.89267 3.11512 34328 ft 445 kts 125°
2026-05-06 14:52 50.87518 3.15499 34483 ft 446 kts 125°
2026-05-06 14:53 50.85757 3.19509 34628 ft 446 kts 125°
2026-05-06 14:53 50.83987 3.23529 34771 ft 447 kts 125°
2026-05-06 14:53 50.82194 3.27600 34866 ft 448 kts 125°
2026-05-06 14:54 50.78648 3.35627 34875 ft 448 kts 125°
2026-05-06 14:54 50.75084 3.43672 34877 ft 448 kts 125°
2026-05-06 14:55 50.71537 3.51652 34873 ft 447 kts 125°
2026-05-06 14:55 50.67989 3.59612 34871 ft 446 kts 125°
2026-05-06 14:56 50.64423 3.67592 34870 ft 446 kts 126°
2026-05-06 14:56 50.60853 3.75551 34865 ft 445 kts 126°
2026-05-06 14:57 50.57296 3.83504 34852 ft 444 kts 124°
2026-05-06 14:57 50.53933 3.91615 34854 ft 444 kts 123°
2026-05-06 14:58 50.50583 3.99702 34848 ft 445 kts 123°
2026-05-06 14:58 50.47218 4.07800 34850 ft 444 kts 123°
2026-05-06 14:59 50.43842 4.15905 34855 ft 443 kts 123°
2026-05-06 14:59 50.40496 4.23913 34853 ft 443 kts 123°
2026-05-06 15:00 50.37124 4.31965 34853 ft 442 kts 123°
2026-05-06 15:00 50.33765 4.39956 34851 ft 442 kts 123°
2026-05-06 15:01 50.30376 4.47990 34851 ft 443 kts 124°
2026-05-06 15:01 50.26994 4.55985 34849 ft 443 kts 123°
2026-05-06 15:02 50.23577 4.64039 34847 ft 442 kts 123°
2026-05-06 15:02 50.20195 4.71989 34851 ft 442 kts 124°
2026-05-06 15:03 50.16782 4.79987 34857 ft 442 kts 125°
2026-05-06 15:03 50.13372 4.87955 34858 ft 442 kts 125°
2026-05-06 15:04 50.09875 4.96094 34855 ft 442 kts 125°
2026-05-06 15:04 50.06415 5.04129 34854 ft 442 kts 125°
2026-05-06 15:05 50.02991 5.12052 34850 ft 442 kts 125°
2026-05-06 15:05 49.99565 5.19961 34838 ft 442 kts 125°
2026-05-06 15:06 49.96127 5.27868 34836 ft 442 kts 125°
2026-05-06 15:06 49.92708 5.35712 34829 ft 443 kts 125°
2026-05-06 15:07 49.89268 5.43583 34824 ft 443 kts 125°
2026-05-06 15:07 49.85798 5.51492 34829 ft 443 kts 125°
2026-05-06 15:08 49.82348 5.59335 34822 ft 443 kts 125°
2026-05-06 15:08 49.78867 5.67228 34830 ft 443 kts 126°
2026-05-06 15:09 49.75401 5.75060 34817 ft 444 kts 126°
2026-05-06 15:09 49.71924 5.82897 34806 ft 444 kts 126°
2026-05-06 15:10 49.68434 5.90742 34813 ft 444 kts 126°
2026-05-06 15:10 49.64955 5.98537 34806 ft 444 kts 127°
2026-05-06 15:11 49.61457 6.06353 34809 ft 443 kts 126°
2026-05-06 15:11 49.57965 6.14131 34821 ft 443 kts 127°
2026-05-06 15:12 49.54478 6.21875 34819 ft 444 kts 127°
2026-05-06 15:12 49.50890 6.29620 34820 ft 443 kts 130°
2026-05-06 15:13 49.46697 6.36396 34803 ft 439 kts 141°
2026-05-06 15:13 49.41788 6.41947 34808 ft 436 kts 150°
2026-05-06 15:14 49.36418 6.46106 34808 ft 434 kts 158°
2026-05-06 15:14 49.30885 6.49857 34804 ft 433 kts 158°
2026-05-06 15:15 49.25377 6.53581 34806 ft 433 kts 158°
2026-05-06 15:15 49.19913 6.57279 34813 ft 432 kts 158°
2026-05-06 15:16 49.14431 6.60984 34806 ft 432 kts 158°
2026-05-06 15:16 49.08931 6.64690 34807 ft 432 kts 158°
2026-05-06 15:17 49.03469 6.68363 34806 ft 431 kts 159°
2026-05-06 15:17 48.97979 6.72049 34808 ft 431 kts 159°
2026-05-06 15:18 48.92540 6.75758 34795 ft 431 kts 159°
2026-05-06 15:18 48.87071 6.79494 34805 ft 431 kts 159°
2026-05-06 15:19 48.81646 6.83185 34810 ft 430 kts 159°
2026-05-06 15:19 48.76185 6.86893 34811 ft 429 kts 159°
2026-05-06 15:20 48.70748 6.90576 34804 ft 429 kts 159°
2026-05-06 15:20 48.65247 6.94293 34809 ft 429 kts 159°
2026-05-06 15:21 48.59789 6.97972 34820 ft 428 kts 159°
2026-05-06 15:21 48.54346 7.01632 34826 ft 428 kts 159°
2026-05-06 15:22 48.48956 7.05251 34814 ft 427 kts 159°
2026-05-06 15:22 48.43533 7.08878 34819 ft 427 kts 159°
2026-05-06 15:23 48.38114 7.12496 34814 ft 427 kts 159°
2026-05-06 15:23 48.32697 7.16103 34833 ft 426 kts 159°
2026-05-06 15:24 48.27296 7.19694 34832 ft 426 kts 159°
2026-05-06 15:24 48.21880 7.23287 34832 ft 426 kts 159°
2026-05-06 15:25 48.16488 7.26853 34823 ft 426 kts 159°
2026-05-06 15:25 48.11083 7.30421 34844 ft 425 kts 159°
2026-05-06 15:26 48.05685 7.33976 34827 ft 424 kts 159°
2026-05-06 15:26 48.00336 7.37490 34844 ft 423 kts 159°
2026-05-06 15:27 47.94952 7.41023 34854 ft 423 kts 160°
2026-05-06 15:27 47.89584 7.44533 34853 ft 423 kts 160°
2026-05-06 15:28 47.84193 7.48052 34861 ft 423 kts 160°
2026-05-06 15:28 47.78795 7.51568 34863 ft 423 kts 160°
2026-05-06 15:29 47.73424 7.55061 34869 ft 423 kts 159°
2026-05-06 15:29 47.68127 7.58765 34873 ft 424 kts 158°
2026-05-06 15:30 47.62817 7.62534 34874 ft 424 kts 158°
2026-05-06 15:30 47.57493 7.66291 34876 ft 423 kts 159°
2026-05-06 15:31 47.52216 7.69998 34882 ft 423 kts 159°
2026-05-06 15:31 47.46905 7.73717 34882 ft 422 kts 159°
2026-05-06 15:32 47.38965 7.79258 34886 ft 421 kts 159°
2026-05-06 15:32 47.33674 7.82939 34889 ft 421 kts 159°
2026-05-06 15:33 47.28385 7.86611 34894 ft 421 kts 160°
2026-05-06 15:33 47.23095 7.90277 34892 ft 421 kts 160°
2026-05-06 15:34 47.17818 7.93928 34895 ft 421 kts 160°
2026-05-06 15:34 47.12526 7.97577 34892 ft 421 kts 160°
2026-05-06 15:35 47.07236 8.01219 34900 ft 421 kts 160°
2026-05-06 15:35 47.02365 8.04563 34896 ft 421 kts 160°
2026-05-06 15:36 46.97334 8.08011 34898 ft 420 kts 160°
2026-05-06 15:36 46.94664 8.09841 34781 ft 420 kts 160°
2026-05-06 15:36 46.92016 8.11651 34823 ft 421 kts 160°
2026-05-06 15:37 46.86752 8.15242 34833 ft 421 kts 160°
2026-05-06 15:37 46.81453 8.18851 34877 ft 420 kts 160°
2026-05-06 15:38 46.76176 8.22438 34892 ft 419 kts 161°
2026-05-06 15:38 46.70892 8.26020 34897 ft 420 kts 161°
2026-05-06 15:39 46.65626 8.29583 34898 ft 419 kts 161°
2026-05-06 15:39 46.60334 8.33157 34885 ft 419 kts 161°
2026-05-06 15:40 46.55082 8.36694 34895 ft 420 kts 161°
2026-05-06 15:40 46.49780 8.40257 34894 ft 420 kts 161°
2026-05-06 15:41 46.44500 8.43800 34886 ft 418 kts 161°
2026-05-06 15:41 46.39237 8.47325 34888 ft 418 kts 161°
2026-05-06 15:42 46.34088 8.51239 34876 ft 426 kts 152°
2026-05-06 15:42 46.29690 8.57217 34876 ft 444 kts 136°
2026-05-06 15:43 46.25931 8.64262 34874 ft 443 kts 134°
2026-05-06 15:43 46.22212 8.71311 34888 ft 443 kts 135°
2026-05-06 15:44 46.18480 8.78337 34892 ft 443 kts 136°
2026-05-06 15:44 46.14715 8.85378 34861 ft 443 kts 136°
2026-05-06 15:45 46.10959 8.92385 34860 ft 442 kts 136°
2026-05-06 15:45 46.07222 8.99337 34852 ft 443 kts 136°
2026-05-06 15:46 46.03448 9.06344 34602 ft 442 kts 136°
2026-05-06 15:46 46.01571 9.09830 34363 ft 440 kts 136°
2026-05-06 15:46 45.99699 9.13298 33857 ft 440 kts 136°
2026-05-06 15:47 45.97845 9.16720 33153 ft 442 kts 137°
2026-05-06 15:47 45.95945 9.20218 32319 ft 446 kts 136°
2026-05-06 15:47 45.94022 9.23753 31433 ft 451 kts 136°
2026-05-06 15:47 45.92093 9.27300 30514 ft 456 kts 136°
2026-05-06 15:48 45.90144 9.30877 29539 ft 460 kts 136°
2026-05-06 15:48 45.88191 9.34458 28671 ft 461 kts 136°
2026-05-06 15:48 45.86234 9.38050 27986 ft 458 kts 135°
2026-05-06 15:48 45.84280 9.41641 27433 ft 452 kts 135°
2026-05-06 15:49 45.82359 9.45163 26855 ft 447 kts 135°
2026-05-06 15:49 45.80479 9.48603 26305 ft 442 kts 135°
2026-05-06 15:49 45.78588 9.52058 25762 ft 437 kts 135°
2026-05-06 15:49 45.76741 9.55430 25221 ft 432 kts 135°
2026-05-06 15:50 45.74894 9.58793 24674 ft 427 kts 135°
2026-05-06 15:50 45.73082 9.62088 24143 ft 423 kts 134°
2026-05-06 15:50 45.71270 9.65380 23621 ft 418 kts 135°
2026-05-06 15:50 45.69484 9.68619 23121 ft 413 kts 135°
2026-05-06 15:51 45.67724 9.71817 22618 ft 409 kts 135°
2026-05-06 15:51 45.66001 9.75016 21880 ft 411 kts 134°
2026-05-06 15:51 45.64240 9.78308 20974 ft 417 kts 132°
2026-05-06 15:51 45.62529 9.81621 20358 ft 415 kts 131°
2026-05-06 15:52 45.60869 9.84876 19825 ft 407 kts 131°
2026-05-06 15:52 45.59226 9.88096 19146 ft 396 kts 131°
2026-05-06 15:52 45.57610 9.91237 18392 ft 387 kts 131°
2026-05-06 15:52 45.56055 9.94250 17574 ft 380 kts 131°
2026-05-06 15:53 45.54489 9.97273 16726 ft 374 kts 131°
2026-05-06 15:53 45.52971 10.00203 15898 ft 366 kts 130°
2026-05-06 15:53 45.51483 10.03070 15082 ft 358 kts 130°
2026-05-06 15:53 45.50030 10.05861 14261 ft 351 kts 130°
2026-05-06 15:54 45.48605 10.08596 13498 ft 343 kts 130°
2026-05-06 15:54 45.47196 10.11306 12735 ft 335 kts 130°
2026-05-06 15:54 45.45835 10.13914 12098 ft 325 kts 129°
2026-05-06 15:54 45.44517 10.16442 11524 ft 316 kts 129°
2026-05-06 15:55 45.43227 10.18915 10948 ft 307 kts 130°
2026-05-06 15:55 45.41970 10.21317 10373 ft 300 kts 129°
2026-05-06 15:55 45.40739 10.23668 9798 ft 293 kts 129°
2026-05-06 15:55 45.39537 10.25965 9225 ft 288 kts 130°
2026-05-06 15:56 45.38360 10.28208 8656 ft 283 kts 130°
2026-05-06 15:56 45.37207 10.30406 8232 ft 273 kts 130°
2026-05-06 15:56 45.36098 10.32520 7921 ft 264 kts 130°
2026-05-06 15:56 45.35012 10.34587 7606 ft 260 kts 129°
2026-05-06 15:57 45.33939 10.36623 7247 ft 253 kts 130°
2026-05-06 15:57 45.32910 10.38584 6883 ft 245 kts 130°
2026-05-06 15:57 45.31912 10.40480 6546 ft 237 kts 130°
2026-05-06 15:57 45.30938 10.42326 6260 ft 230 kts 129°
2026-05-06 15:58 45.29992 10.44117 6000 ft 229 kts 130°
2026-05-06 15:58 45.29039 10.45919 5714 ft 228 kts 130°
2026-05-06 15:58 45.28086 10.47724 5416 ft 228 kts 130°
2026-05-06 15:58 45.27131 10.49528 5123 ft 228 kts 129°
2026-05-06 15:59 45.26179 10.51307 4838 ft 228 kts 131°
2026-05-06 15:59 45.25123 10.52976 4554 ft 226 kts 137°
2026-05-06 15:59 45.24012 10.54523 4258 ft 226 kts 137°
2026-05-06 15:59 45.22898 10.56054 3958 ft 221 kts 137°
2026-05-06 16:00 45.21807 10.57553 3671 ft 213 kts 137°
2026-05-06 16:00 45.20971 10.59195 3449 ft 204 kts 111°
2026-05-06 16:00 45.20942 10.61161 3155 ft 202 kts 74°
2026-05-06 16:00 45.21621 10.62861 2931 ft 197 kts 53°
2026-05-06 16:01 45.22542 10.64267 2711 ft 193 kts 45°
2026-05-06 16:01 45.23515 10.65571 2584 ft 193 kts 45°
2026-05-06 16:01 45.24496 10.66898 2476 ft 192 kts 46°
2026-05-06 16:01 45.25437 10.68216 2425 ft 193 kts 47°
2026-05-06 16:02 45.26383 10.69576 2377 ft 192 kts 48°
2026-05-06 16:02 45.27311 10.70931 2327 ft 191 kts 48°
2026-05-06 16:02 45.28237 10.72293 2274 ft 190 kts 48°
2026-05-06 16:02 45.29155 10.73643 2229 ft 190 kts 48°
2026-05-06 16:03 45.30031 10.74928 2150 ft 174 kts 48°
2026-05-06 16:03 45.30856 10.76137 2125 ft 167 kts 48°
2026-05-06 16:03 45.31662 10.77318 2074 ft 167 kts 47°
2026-05-06 16:03 45.32472 10.78504 1979 ft 165 kts 47°
2026-05-06 16:04 45.33244 10.79631 1750 ft 153 kts 47°
2026-05-06 16:04 45.33971 10.80692 1550 ft 147 kts 47°
2026-05-06 16:04 45.34684 10.81733 1375 ft 145 kts 47°
2026-05-06 16:04 45.35383 10.82756 1193 ft 144 kts 47°
2026-05-06 16:05 45.36079 10.83765 1019 ft 142 kts 47°
2026-05-06 16:05 45.36760 10.84763 823 ft 141 kts 47°
2026-05-06 16:05 45.37445 10.85759 621 ft 140 kts 47°
2026-05-06 16:05 45.38123 10.86745 443 ft 140 kts 47°
2026-05-06 16:06 45.38800 10.87734 281 ft 138 kts 46°
2026-05-06 16:06 45.39423 10.88643 249 ft 109 kts 46°
2026-05-06 16:06 45.39844 10.89252 249 ft 66 kts 45°
2026-05-06 16:06 45.40104 10.89631 249 ft 39 kts 46°
2026-05-06 16:07 45.40244 10.89834 249 ft 17 kts 46°
2026-05-06 16:07 45.40284 10.89954 249 ft 10 kts 78°
2026-05-06 16:07 45.40299 10.90049 249 ft 8 kts 76°
2026-05-06 16:07 45.40312 10.90121 249 ft 6 kts 76°
2026-05-06 16:08 45.40319 10.90163 249 ft 2 kts 76°
2026-05-06 16:08 45.40324 10.90191 249 ft 3 kts 76°
2026-05-06 16:08 45.40331 10.90231 249 ft 5 kts 76°
2026-05-06 16:08 45.40325 10.90292 249 ft 7 kts 125°
2026-05-06 16:09 45.40286 10.90348 249 ft 7 kts 136°
2026-05-06 16:09 45.40258 10.90394 249 ft 5 kts 111°
2026-05-06 16:09 45.40270 10.90445 249 ft 5 kts 56°
2026-05-06 16:09 45.40265 10.90493 249 ft 5 kts 132°
2026-05-06 16:10 45.40249 10.90516 249 ft 0 kts 135°
2026-05-06 16:10 45.40248 10.90517 249 ft 0 kts 135°